Terug naar catalogus

R5-S9

ActiefAmateurradioSSO
NORAD 69901·PAYLOAD·🇺🇸 United States

Gelanceerd Jul 7, 2026 vanaf Vandenberg Space Force Base

Loading…

Volgende Passages (komende 24 uur)

TLE

VersSource: Space-Track

Epoch: Sep 14, 2026, 12:39 UTC

1 69901U 26156AJ  26257.52736939  .00000844  00000-0  90623-4 0  9991
2 69901  97.7446 156.7458 0003041 257.1992 102.8887 14.91169392 10317

Volg R5-S9 in realtime met AllMySat

Download on the App Store